This demonstration page uses our WeatherBlox Daily Observations layout. Learn more.

Left ArrowRight Arrow

Hourly Observations for March 28, 2015

Temp ( °F °C ) Dew Point ( °F °C ) Humidity (%) Winds ( mph kmh ) Pressure ( in mb ) Visibility ( mi km ) Precip ( " mm )
12:53 am 00:53 Clear 46 7.8 35 1.7 66 66 SSW 6 9 29.78 1008 10 16 N/A
1:53 am 01:53 Clear 45 7.2 35 1.7 68 68 SW 5 7 29.75 1008 10 16 N/A
2:53 am 02:53 Clear 47 8.3 35 1.7 63 63 SW 9 15 29.72 1006 10 16 N/A
3:53 am 03:53 Clear 45 7.2 35 1.7 68 68 SW 9 15 29.69 1006 10 16 N/A
4:53 am 04:53 Clear 44 6.7 35 1.7 71 71 SW 15 24 29.67 1005 10 16 N/A
5:53 am 05:53 Clear 43 6.1 35 1.7 74 74 SW 8 13 29.65 1004 10 16 N/A
6:53 am 06:53 Clear 43 6.1 34 1.1 71 71 N N/A 29.62 1003 10 16 N/A
7:53 am 07:53 Sunny 45 7.2 36 2.2 71 71 SW 6 9 29.61 1003 10 16 N/A
8:53 am 08:53 Sunny 51 10.6 37 2.8 59 59 WSW 8 13 29.56 1001 10 16 N/A
9:53 am 09:53 Cloudy 57 13.9 37 2.8 47 47 W 17 28 29.56 1001 10 16 N/A
10:53 am 10:53 Mostly Sunny 63 17.2 40 4.4 43 43 W 20 31 29.58 1002 10 16 N/A
11:53 am 11:53 Cloudy 61 16.1 40 4.4 46 46 W 28 44 29.60 1003 10 16 N/A
12:53 pm 12:53 Cloudy 60 15.6 35 1.7 39 39 W 29 46 29.64 1004 10 16 N/A
1:53 pm 13:53 Cloudy 56 13.3 32 undefined 40 40 WSW 30 48 29.70 1006 10 16 N/A
2:53 pm 14:53 Cloudy 55 12.8 30 -1.1 38 38 WSW 33 54 29.72 1007 10 16 N/A
3:53 pm 15:53 Cloudy 56 13.3 27 -2.8 33 33 W 33 54 29.73 1007 10 16 N/A
4:53 pm 16:53 Cloudy 54 12.2 31 -0.6 42 42 W 26 43 29.76 1008 10 16 N/A
5:53 pm 17:53 Cloudy with Light Rain 44 6.7 38 3.3 79 79 WNW 36 57 29.84 1011 10 16 N/A
6:32 pm 18:32 Cloudy with Light Rain 43 6 39 4 87 87 W 29 46 29.88 1012 8 13 N/A
6:53 pm 18:53 Cloudy with Light Rain 43 6.1 40 4.4 89 89 WNW 21 33 29.91 1013 10 16 0.05 1.27
7:28 pm 19:28 Cloudy with Light Rain 45 7 43 6 93 93 WNW 17 28 29.94 1014 8 13 N/A
7:53 pm 19:53 Cloudy with Light Rain 44 6.7 41 5 89 89 W 15 24 29.97 1015 10 16 0.09 2.29
8:36 pm 20:36 Cloudy 45 7 43 6 93 93 WNW 21 33 30.03 1017 10 16 N/A
8:53 pm 20:53 Cloudy 44 6.7 41 5 89 89 W 16 26 30.04 1017 10 16 N/A
9:22 pm 21:22 Cloudy 43 6 41 5 93 93 WSW 8 13 30.09 1019 10 16 N/A
9:38 pm 21:38 Cloudy 43 6 39 4 87 87 SW 9 15 30.09 1019 10 16 N/A
9:53 pm 21:53 Cloudy 43 6.1 40 4.4 89 89 SW 10 17 30.07 1018 10 16 N/A
10:53 pm 22:53 Cloudy 42 5.6 40 4.4 92 92 SSW 6 9 30.07 1018 10 16 N/A
11:53 pm 23:53 Cloudy 44 6.7 40 4.4 85 85 WSW 10 17 30.10 1019 10 16 N/A

Powered by AerisWeather